TimeMST,TemperatureF,Dew PointF,Humidity,Sea Level PressureIn,VisibilityMPH,Wind Direction,Wind SpeedMPH,Gust SpeedMPH,PrecipitationIn,Events,Conditions,WindDirDegrees,DateUTC
12:52 AM,12.9,8.1,81,30.15,10.0,North,3.5,-,N/A,,Overcast,10,2014-02-03 07:52:00
1:52 AM,12.9,7.0,77,30.14,10.0,East,3.5,-,N/A,,Overcast,100,2014-02-03 08:52:00
2:52 AM,12.9,7.0,77,30.13,10.0,SE,6.9,-,N/A,,Overcast,130,2014-02-03 09:52:00
3:52 AM,10.9,7.0,84,30.13,10.0,ESE,6.9,-,N/A,,Overcast,120,2014-02-03 10:52:00
4:52 AM,10.9,7.0,84,30.15,10.0,ESE,5.8,-,N/A,,Overcast,110,2014-02-03 11:52:00
5:52 AM,10.9,6.1,81,30.16,10.0,East,5.8,-,N/A,,Overcast,100,2014-02-03 12:52:00
6:52 AM,10.9,6.1,81,30.17,10.0,ENE,3.5,-,N/A,,Overcast,60,2014-02-03 13:52:00
7:52 AM,10.9,6.1,81,30.18,6.0,ENE,5.8,-,0.00,Snow,Light Snow,60,2014-02-03 14:52:00
8:44 AM,12.2,6.8,79,30.01,2.5,NE,6.9,-,0.00,Snow,Light Snow,50,2014-02-03 15:44:00
8:52 AM,12.0,7.0,80,30.20,2.5,NE,6.9,-,0.00,Snow,Light Snow,40,2014-02-03 15:52:00
9:02 AM,12.2,6.8,79,30.01,1.5,NE,5.8,-,0.00,Snow,Light Snow,40,2014-02-03 16:02:00
9:10 AM,12.2,6.8,79,30.02,2.0,ENE,3.5,-,0.00,Snow,Light Snow,60,2014-02-03 16:10:00
9:29 AM,12.2,8.6,85,30.02,1.5,NE,5.8,-,0.01,Snow,Light Snow,40,2014-02-03 16:29:00
9:52 AM,12.9,7.0,77,30.20,1.5,NE,6.9,-,0.01,Snow,Light Snow,40,2014-02-03 16:52:00
10:13 AM,12.2,6.8,79,30.03,2.0,NE,5.8,-,0.00,Snow,Light Snow,50,2014-02-03 17:13:00
10:52 AM,14.0,8.1,77,30.21,2.0,North,8.1,-,0.00,Snow,Light Snow,10,2014-02-03 17:52:00
11:23 AM,14.0,8.6,79,30.01,3.0,NNE,9.2,-,0.00,Snow,Light Snow,20,2014-02-03 18:23:00
11:52 AM,15.1,8.1,74,30.19,3.0,North,9.2,-,0.00,Snow,Light Snow,10,2014-02-03 18:52:00
12:15 PM,15.8,8.6,73,30.01,2.5,North,10.4,-,0.00,Snow,Light Snow,10,2014-02-03 19:15:00
12:20 PM,15.8,8.6,73,30.00,3.0,North,11.5,-,0.00,Snow,Light Snow,10,2014-02-03 19:20:00
12:30 PM,15.8,8.6,73,30.00,2.5,North,11.5,-,0.00,Snow,Light Snow,10,2014-02-03 19:30:00
12:42 PM,15.8,10.4,79,29.99,2.5,North,10.4,-,0.00,Snow,Light Snow,10,2014-02-03 19:42:00
12:50 PM,15.8,8.6,73,29.99,4.0,NNE,12.7,-,0.00,Snow,Light Snow,20,2014-02-03 19:50:00
12:52 PM,16.0,9.0,74,30.17,4.0,NNE,11.5,-,0.00,Snow,Light Snow,20,2014-02-03 19:52:00
1:52 PM,16.0,9.0,74,30.18,3.0,North,15.0,-,0.00,Snow,Light Snow,10,2014-02-03 20:52:00
2:26 PM,17.6,10.4,73,30.02,2.5,NNE,15.0,-,0.00,Snow,Light Snow,20,2014-02-03 21:26:00
2:52 PM,15.1,9.0,77,30.22,1.2,NNE,13.8,-,0.00,Snow,Light Snow,20,2014-02-03 21:52:00
3:12 PM,15.8,10.4,79,30.04,0.8,North,15.0,-,0.00,Snow,Light Snow,10,2014-02-03 22:12:00
3:34 PM,14.0,8.6,79,30.05,1.0,North,15.0,-,0.00,Snow,Light Snow,10,2014-02-03 22:34:00
3:41 PM,14.0,8.6,79,30.06,1.2,NNE,15.0,-,0.00,Snow,Light Snow,20,2014-02-03 22:41:00
3:52 PM,14.0,9.0,80,30.25,1.2,NNE,13.8,-,0.00,Snow,Light Snow,20,2014-02-03 22:52:00
4:10 PM,12.2,8.6,85,30.07,2.0,NNE,12.7,-,0.00,Snow,Light Snow,20,2014-02-03 23:10:00
4:21 PM,12.2,8.6,85,30.07,4.0,NNE,15.0,-,0.00,Snow,Light Snow,20,2014-02-03 23:21:00
4:52 PM,12.0,7.0,80,30.27,6.0,NNE,12.7,-,0.00,Snow,Light Snow,20,2014-02-03 23:52:00
5:52 PM,10.0,6.1,84,30.29,8.0,North,10.4,-,0.00,Snow,Light Snow,10,2014-02-04 00:52:00
6:52 PM,8.1,5.0,87,30.32,5.0,NNE,10.4,-,0.00,Snow,Light Snow,20,2014-02-04 01:52:00
7:03 PM,8.6,3.2,79,30.13,6.0,NNE,10.4,-,0.00,Snow,Light Snow,20,2014-02-04 02:03:00
7:52 PM,8.1,5.0,87,30.33,6.0,NNE,6.9,-,0.00,Snow,Light Snow,20,2014-02-04 02:52:00
8:52 PM,10.0,6.1,84,30.35,9.0,NE,8.1,-,0.00,,Overcast,50,2014-02-04 03:52:00
9:52 PM,9.0,6.1,88,30.37,8.0,ENE,6.9,-,0.00,Snow,Light Snow,60,2014-02-04 04:52:00
10:52 PM,9.0,6.1,88,30.37,7.0,ENE,6.9,-,0.00,,Overcast,60,2014-02-04 05:52:00
11:34 PM,8.6,6.8,92,30.19,5.0,ENE,6.9,-,0.00,Snow,Light Snow,60,2014-02-04 06:34:00
11:52 PM,9.0,6.1,88,30.38,3.0,ENE,6.9,-,0.00,Snow,Light Snow,60,2014-02-04 06:52:00
11:59 PM,8.6,5.0,85,30.19,2.0,ENE,6.9,-,0.00,Snow,Light Snow,60,2014-02-04 06:59:00